K9APR Weather Reports


Display with metric or nautical units.
time (UTC)temp
F
wind
direction
speed
MPH
gust
MPH
rain 1hr
in
rain 24hr
in
rain mn
in
humidity
%
barometer
mb
20260831014229 72 154 0.0 0.0 0.00 0.00 0.00 89 1018.0
20260831013329 72 154 0.0 0.0 0.00 0.00 0.00 89 1017.9
20260831012428 72 154 0.0 0.0 0.00 0.00 0.00 89 1017.8
20260831011528 72 154 0.0 0.0 0.00 0.00 0.00 89 1017.8
20260831010700 72 154 0.0 0.0 0.00 0.00 0.00 88 1017.8
20260831010628 72 154 0.0 0.0 0.00 0.00 0.00 88 1017.8
20260831005804 73 154 0.0 0.0 0.00 0.00 0.00 87 1017.8
20260831005728 73 154 0.0 0.0 0.00 0.00 0.00 87 1017.8
20260831004828 73 154 0.0 0.0 0.00 0.00 0.00 87 1017.7
20260831004235 74 154 0.0 0.0 0.00 0.00 0.00 86 1017.7
20260831004003 74 154 0.0 0.0 0.00 0.00 0.00 86 1017.7
20260831003928 74 154 0.0 0.0 0.00 0.00 0.00 86 1017.7
20260831003417 74 154 0.0 0.0 0.00 0.00 0.00 86 1017.7
20260831003027 74 154 0.0 0.0 0.00 0.00 0.00 86 1017.7
20260831002217 75 154 0.0 0.0 0.00 0.00 0.00 85 1017.6
20260831002128 75 154 0.0 0.0 0.00 0.00 0.00 85 1017.6
20260831001324 75 154 0.0 0.0 0.00 0.00 0.00 85 1017.6
20260831001227 75 154 0.0 0.0 0.00 0.00 0.00 85 1017.6
20260831000328 76 154 0.0 0.0 0.00 0.00 0.00 84 1017.5
20260830235458 77 154 0.0 0.0 0.00 0.00 0.00 83 1017.6
20260830235428 77 154 0.0 0.0 0.00 0.00 0.00 83 1017.6
20260830234527 78 154 0.0 0.0 0.00 0.00 0.00 82 1017.5
20260830232800 79 154 0.0 0.0 0.00 0.00 0.00 80 1017.7
20260830232729 79 154 0.0 0.0 0.00 0.00 0.00 80 1017.7
20260830231831 80 154 0.0 0.0 0.00 0.00 0.00 80 1017.7
20260830230928 81 154 0.0 0.0 0.00 0.00 0.00 78 1017.5
20260830230028 81 154 0.0 0.0 0.00 0.00 0.00 77 1017.4
20260830225128 81 154 0.0 0.0 0.00 0.00 0.00 77 1017.2
20260830224227 82 154 0.0 0.0 0.00 0.00 0.00 75 1017.2
20260830223328 82 154 0.0 0.0 0.00 0.00 0.00 73 1017.2
20260830222428 82 154 0.0 0.0 0.00 0.00 0.00 72 1017.2
20260830221528 82 154 0.0 0.0 0.00 0.00 0.00 71 1017.2
20260830220629 82 106 0.0 1.0 0.00 0.00 0.00 73 1016.9
20260830215728 82 133 0.0 0.0 0.00 0.00 0.00 73 1016.9
20260830214828 81 154 0.0 1.0 0.00 0.00 0.00 73 1016.9
20260830213928 82 197 0.0 1.0 0.00 0.00 0.00 73 1017.1
20260830213029 81 133 0.0 1.0 0.00 0.00 0.00 77 1017.2
20260830212128 80 126 0.0 1.0 0.00 0.00 0.00 76 1017.1
20260830211228 80 149 0.0 0.0 0.00 0.00 0.00 77 1017.3
20260830210328 79 154 0.0 1.0 0.00 0.00 0.00 76 1017.3
20260830205427 79 126 0.0 0.0 0.00 0.00 0.00 76 1017.5
20260830204529 79 151 0.0 0.0 0.00 0.00 0.00 76 1017.5
20260830203627 78 147 0.0 0.0 0.00 0.00 0.00 76 1017.5
20260830202728 78 134 0.0 0.0 0.00 0.00 0.00 76 1017.4
20260830201827 79 147 0.0 0.0 0.00 0.00 0.00 75 1017.3
20260830200929 79 151 0.0 0.0 0.00 0.00 0.00 73 1017.7
20260830200028 80 214 0.0 0.0 0.00 0.00 0.00 73 1017.7
20260830195127 80 128 1.0 2.0 0.00 0.00 0.00 73 1017.6
20260830194227 81 125 0.0 2.0 0.00 0.00 0.00 72 1017.9
20260830193328 81 125 0.0 1.0 0.00 0.00 0.00 74 1018.3
20260830192427 81 135 0.0 0.0 0.00 0.00 0.00 74 1018.7
20260830191527 81 136 0.0 1.0 0.00 0.00 0.00 72 1018.9
20260830190628 81 135 0.0 1.0 0.00 0.00 0.00 71 1019.0
20260830185727 82 139 0.0 0.0 0.00 0.00 0.00 68 1019.1
20260830184827 82 142 0.0 0.0 0.00 0.00 0.00 67 1019.3
20260830183926 83 319 0.0 0.0 0.00 0.00 0.00 69 1019.4
20260830182127 83 320 0.0 0.0 0.00 0.00 0.00 71 1019.6
20260830181226 83 320 0.0 0.0 0.00 0.00 0.00 69 1019.8
20260830180326 82 321 0.0 0.0 0.00 0.00 0.00 74 1020.1
20260830175427 81 321 0.0 0.0 0.00 0.00 0.00 72 1020.4
20260830174529 81 321 0.0 0.0 0.00 0.00 0.00 74 1020.5
20260830173627 81 321 0.0 0.0 0.00 0.00 0.00 74 1020.5
20260830172728 81 321 0.0 0.0 0.00 0.00 0.00 75 1020.7
20260830171828 80 321 0.0 1.0 0.00 0.00 0.00 74 1020.7
20260830170928 81 321 0.0 0.0 0.00 0.00 0.00 72 1021.0
20260830170028 80 321 0.0 0.0 0.00 0.00 0.00 75 1020.9
20260830165200 80 321 0.0 0.0 0.00 0.00 0.00 74 1021.0
20260830165128 80 321 0.0 0.0 0.00 0.00 0.00 74 1021.0
20260830164311 80 321 0.0 1.0 0.00 0.00 0.00 74 1021.1
20260830164228 80 321 0.0 1.0 0.00 0.00 0.00 74 1021.1
20260830163327 80 303 0.0 0.0 0.00 0.00 0.00 77 1021.1
20260830162427 79 303 0.0 0.0 0.00 0.00 0.00 74 1021.1
20260830161528 79 275 0.0 0.0 0.00 0.00 0.00 75 1021.0
20260830160628 79 311 0.0 0.0 0.00 0.00 0.00 76 1021.0
20260830155727 79 312 0.0 1.0 0.00 0.00 0.00 75 1020.9
20260830154932 79 310 0.0 2.0 0.00 0.00 0.00 75 1020.8
20260830154827 79 310 0.0 2.0 0.00 0.00 0.00 75 1020.8
20260830153928 79 208 0.0 0.0 0.00 0.00 0.00 78 1020.6
20260830153026 79 224 0.0 1.0 0.00 0.00 0.00 77 1020.4
20260830152128 79 189 0.0 0.0 0.00 0.00 0.00 78 1020.1
20260830151226 78 144 0.0 1.0 0.00 0.00 0.00 79 1020.0
20260830150327 78 314 0.0 0.0 0.00 0.00 0.00 79 1019.8
20260830145427 78 156 0.0 0.0 0.00 0.00 0.00 79 1019.6
20260830144101 77 161 0.0 0.0 0.00 0.00 0.00 80 1019.4
20260830143629 77 161 0.0 0.0 0.00 0.00 0.00 80 1019.4
20260830142800 77 122 0.0 1.0 0.00 0.00 0.00 80 1019.3
20260830142728 77 122 0.0 1.0 0.00 0.00 0.00 80 1019.3
20260830141939 76 167 0.0 0.0 0.00 0.00 0.00 83 1019.2
20260830141828 76 167 0.0 0.0 0.00 0.00 0.00 83 1019.2
20260830141049 75 210 0.0 0.0 0.00 0.00 0.00 84 1019.2
20260830140928 75 210 0.0 0.0 0.00 0.00 0.00 84 1019.2
20260830140028 73 178 1.0 1.0 0.00 0.00 0.00 85 1019.2
20260830135216 72 139 0.0 0.0 0.00 0.00 0.00 86 1019.2
20260830135128 72 139 0.0 0.0 0.00 0.00 0.00 86 1019.2
20260830134259 72 196 1.0 2.0 0.00 0.00 0.00 88 1019.3
20260830134227 72 196 1.0 2.0 0.00 0.00 0.00 88 1019.3
20260830133328 71 145 0.0 1.0 0.00 0.00 0.00 90 1019.2
20260830132428 70 140 0.0 1.0 0.00 0.00 0.00 92 1019.0
20260830131601 69 132 0.0 0.0 0.00 0.00 0.00 93 1019.1
20260830131530 69 132 0.0 0.0 0.00 0.00 0.00 93 1019.1
20260830130853 68 132 0.0 0.0 0.00 0.00 0.00 93 1019.1
20260830130753 68 132 0.0 0.0 0.00 0.00 0.00 93 1019.1
20260830130659 68 132 0.0 0.0 0.00 0.00 0.00 93 1019.1
20260830130627 68 132 0.0 0.0 0.00 0.00 0.00 93 1019.1
20260830125727 67 151 0.0 0.0 0.00 0.00 0.00 93 1019.4
20260830124902 66 98 0.0 0.0 0.00 0.00 0.00 93 1019.5
20260830124828 66 98 0.0 0.0 0.00 0.00 0.00 93 1019.5
20260830123958 66 98 0.0 0.0 0.00 0.00 0.00 92 1019.5
20260830123926 66 98 0.0 0.0 0.00 0.00 0.00 92 1019.5
20260830123106 66 98 0.0 0.0 0.00 0.00 0.00 93 1019.5
20260830123033 66 98 0.0 0.0 0.00 0.00 0.00 93 1019.5
20260830122211 66 98 0.0 0.0 0.00 0.00 0.00 93 1019.4
20260830122128 66 98 0.0 0.0 0.00 0.00 0.00 93 1019.4
20260830121308 65 98 0.0 0.0 0.00 0.00 0.00 93 1019.5
20260830121228 65 98 0.0 0.0 0.00 0.00 0.00 93 1019.5
20260830120327 65 98 0.0 0.0 0.00 0.00 0.00 93 1019.5
20260830115503 65 98 0.0 0.0 0.00 0.00 0.00 92 1019.6
20260830115427 65 98 0.0 0.0 0.00 0.00 0.00 92 1019.6
20260830114602 64 98 0.0 0.0 0.00 0.00 0.00 92 1019.7
20260830114527 64 98 0.0 0.0 0.00 0.00 0.00 92 1019.7
20260830113626 64 98 0.0 0.0 0.00 0.00 0.00 92 1019.7
20260830112802 64 98 0.0 0.0 0.00 0.00 0.00 92 1019.7
20260830112727 64 98 0.0 0.0 0.00 0.00 0.00 92 1019.7
20260830111901 64 98 0.0 0.0 0.00 0.00 0.00 92 1019.5
20260830111826 64 98 0.0 0.0 0.00 0.00 0.00 92 1019.5
20260830110927 64 98 0.0 0.0 0.00 0.00 0.00 92 1019.4
20260830110027 64 98 0.0 0.0 0.00 0.00 0.00 92 1019.3
20260830105220 64 98 0.0 0.0 0.00 0.00 0.00 92 1019.4
20260830105129 64 98 0.0 0.0 0.00 0.00 0.00 92 1019.4
20260830104313 64 98 0.0 0.0 0.00 0.00 0.00 92 1019.2
20260830104227 64 98 0.0 0.0 0.00 0.00 0.00 92 1019.2
20260830103327 64 98 0.0 0.0 0.00 0.00 0.00 92 1019.2
20260830102510 64 98 0.0 0.0 0.00 0.00 0.00 92 1019.1
20260830102428 64 98 0.0 0.0 0.00 0.00 0.00 92 1019.1
20260830101907 64 98 0.0 0.0 0.00 0.00 0.00 92 1019.0
20260830101557 64 98 0.0 0.0 0.00 0.00 0.00 92 1019.0
20260830101526 64 98 0.0 0.0 0.00 0.00 0.00 92 1019.0
20260830100629 63 98 0.0 0.0 0.00 0.00 0.00 92 1019.1
20260830094827 63 98 0.0 0.0 0.00 0.00 0.00 92 1019.1
20260830093926 63 98 0.0 0.0 0.00 0.00 0.00 92 1019.0
20260830093027 63 98 0.0 0.0 0.00 0.00 0.00 92 1019.0
20260830092159 63 98 0.0 0.0 0.00 0.00 0.00 92 1019.1
20260830092128 63 98 0.0 0.0 0.00 0.00 0.00 92 1019.1
20260830091230 63 98 0.0 0.0 0.00 0.00 0.00 92 1019.1
20260830090346 64 98 0.0 0.0 0.00 0.00 0.00 92 1019.2
20260830085428 64 98 0.0 0.0 0.00 0.00 0.00 92 1019.2
20260830084528 64 98 0.0 0.0 0.00 0.00 0.00 91 1019.2
20260830083628 64 98 0.0 0.0 0.00 0.00 0.00 91 1019.1
20260830082757 65 98 0.0 0.0 0.00 0.00 0.00 92 1019.1
20260830082727 65 98 0.0 0.0 0.00 0.00 0.00 92 1019.1
20260830081828 65 98 0.0 0.0 0.00 0.00 0.00 92 1019.2
20260830080927 65 98 0.0 0.0 0.00 0.00 0.00 91 1019.2
20260830080027 65 98 0.0 0.0 0.00 0.00 0.00 92 1019.3
20260830075128 65 98 0.0 0.0 0.00 0.00 0.00 92 1019.3
20260830074227 65 98 0.0 0.0 0.00 0.00 0.00 92 1019.3
20260830073327 65 98 0.0 0.0 0.00 0.00 0.00 91 1019.4
20260830072428 65 98 0.0 0.0 0.00 0.00 0.00 91 1019.3
20260830071526 65 98 0.0 0.0 0.00 0.00 0.00 91 1019.4
20260830065727 65 98 0.0 0.0 0.00 0.00 0.00 91 1019.5
20260830064858 65 98 0.0 0.0 0.00 0.00 0.00 91 1019.5
20260830064827 65 98 0.0 0.0 0.00 0.00 0.00 91 1019.5
20260830063928 65 98 0.0 0.0 0.00 0.00 0.00 91 1019.4
20260830063209 65 98 0.0 0.0 0.00 0.00 0.00 91 1019.7
20260830063027 65 98 0.0 0.0 0.00 0.00 0.00 91 1019.7
20260830062127 65 98 0.0 0.0 0.00 0.00 0.00 91 1019.7
20260830061227 65 98 0.0 0.0 0.00 0.00 0.00 91 1019.7
20260830060401 65 98 0.0 0.0 0.00 0.00 0.00 91 1019.9
20260830060329 65 98 0.0 0.0 0.00 0.00 0.00 91 1019.9
20260830055859 65 98 0.0 0.0 0.00 0.00 0.00 91 1019.8
20260830055500 65 98 0.0 0.0 0.00 0.00 0.00 91 1019.8
20260830055427 65 98 0.0 0.0 0.00 0.00 0.00 91 1019.8
20260830055003 64 98 0.0 0.0 0.00 0.00 0.00 91 1019.8
20260830054607 64 98 0.0 0.0 0.00 0.00 0.00 91 1019.8
20260830054528 64 98 0.0 0.0 0.00 0.00 0.00 91 1019.8
20260830053627 64 98 0.0 0.0 0.00 0.00 0.00 91 1019.9
20260830052727 65 98 0.0 0.0 0.00 0.00 0.00 91 1019.8
20260830051828 64 98 0.0 0.0 0.00 0.00 0.00 91 1019.7
20260830050927 64 98 0.0 0.0 0.00 0.00 0.00 91 1019.8
20260830050027 64 98 0.0 0.0 0.00 0.00 0.00 91 1019.7
20260830045358 64 98 0.0 0.0 0.00 0.00 0.00 91 1019.8
20260830045127 64 98 0.0 0.0 0.00 0.00 0.00 91 1019.8
20260830044514 64 119 0.0 0.0 0.00 0.00 0.00 91 1019.9
20260830044303 64 119 0.0 0.0 0.00 0.00 0.00 91 1019.9
20260830044227 64 119 0.0 0.0 0.00 0.00 0.00 91 1019.9
20260830043404 64 133 0.0 0.0 0.00 0.00 0.00 91 1019.9
20260830043326 64 133 0.0 0.0 0.00 0.00 0.00 91 1019.9
20260830042427 64 133 0.0 0.0 0.00 0.00 0.00 90 1019.7
20260830041859 64 133 0.0 0.0 0.00 0.00 0.00 90 1019.8
20260830041527 64 133 0.0 0.0 0.00 0.00 0.00 90 1019.8
20260830040628 64 133 0.0 0.0 0.00 0.00 0.00 90 1019.7
20260830035757 64 133 0.0 0.0 0.00 0.00 0.00 90 1019.7
20260830035726 64 133 0.0 0.0 0.00 0.00 0.00 90 1019.7
20260830035119 65 133 0.0 0.0 0.00 0.00 0.00 90 1019.7
20260830034828 65 133 0.0 0.0 0.00 0.00 0.00 90 1019.7
20260830033927 65 133 0.0 0.0 0.00 0.00 0.00 90 1019.6
20260830033026 65 133 0.0 0.0 0.00 0.00 0.00 90 1019.7
20260830032126 65 133 0.0 0.0 0.00 0.00 0.00 89 1019.7
20260830031438 65 133 0.0 0.0 0.00 0.00 0.00 89 1019.6
20260830031315 65 133 0.0 0.0 0.00 0.00 0.00 89 1019.6
20260830031228 65 133 0.0 0.0 0.00 0.00 0.00 89 1019.6
20260830030327 65 133 0.0 0.0 0.00 0.00 0.00 89 1019.7
20260830025427 66 133 0.0 0.0 0.00 0.00 0.00 89 1019.6
20260830024751 66 133 0.0 0.0 0.00 0.00 0.00 88 1019.8
20260830024526 66 133 0.0 0.0 0.00 0.00 0.00 88 1019.8
20260830023907 66 133 0.0 0.0 0.00 0.00 0.00 88 1019.7
20260830023628 66 133 0.0 0.0 0.00 0.00 0.00 88 1019.7
20260830022941 67 133 0.0 0.0 0.00 0.00 0.00 88 1019.9
20260830022727 67 133 0.0 0.0 0.00 0.00 0.00 88 1019.9
20260830021827 67 133 0.0 0.0 0.00 0.00 0.00 88 1019.9
20260830021302 67 133 0.0 0.0 0.00 0.00 0.00 87 1019.8
20260830020927 67 133 0.0 0.0 0.00 0.00 0.00 87 1019.8
20260830020027 67 133 0.0 0.0 0.00 0.00 0.00 87 1019.6
20260830015408 68 133 0.0 0.0 0.00 0.00 0.00 87 1019.6
20260830015126 68 133 0.0 0.0 0.00 0.00 0.00 87 1019.6